TimeEDT,TemperatureF,Dew PointF,Humidity,Sea Level PressureIn,VisibilityMPH,Wind Direction,Wind SpeedMPH,Gust SpeedMPH,PrecipitationIn,Events,Conditions,WindDirDegrees,DateUTC
12:56 AM,57.9,55.0,90,30.23,10.0,WSW,4.6,-,N/A,,Clear,250,2013-08-17 04:56:00
1:56 AM,55.9,55.0,97,30.24,10.0,Calm,Calm,-,N/A,,Clear,0,2013-08-17 05:56:00
2:56 AM,55.9,54.0,93,30.24,10.0,Calm,Calm,-,N/A,,Clear,0,2013-08-17 06:56:00
3:56 AM,54.0,53.1,97,30.24,10.0,Calm,Calm,-,N/A,,Clear,0,2013-08-17 07:56:00
4:56 AM,53.1,52.0,96,30.25,10.0,Calm,Calm,-,0.01,,Clear,0,2013-08-17 08:56:00
5:56 AM,52.0,51.1,97,30.27,10.0,Calm,Calm,-,N/A,,Clear,0,2013-08-17 09:56:00
6:56 AM,55.0,53.1,93,30.28,10.0,Calm,Calm,-,N/A,,Clear,0,2013-08-17 10:56:00
7:56 AM,61.0,55.9,83,30.29,10.0,Calm,Calm,-,N/A,,Clear,0,2013-08-17 11:56:00
8:56 AM,68.0,57.9,70,30.29,10.0,NNW,3.5,-,N/A,,Clear,340,2013-08-17 12:56:00
9:56 AM,71.1,59.0,66,30.30,10.0,Calm,Calm,-,N/A,,Clear,0,2013-08-17 13:56:00
10:56 AM,75.0,59.0,57,30.30,10.0,Variable,3.5,-,N/A,,Clear,0,2013-08-17 14:56:00
11:56 AM,75.9,57.0,52,30.30,10.0,Calm,Calm,-,N/A,,Clear,0,2013-08-17 15:56:00
12:56 PM,78.1,57.0,48,30.28,10.0,Variable,3.5,-,N/A,,Scattered Clouds,0,2013-08-17 16:56:00
1:56 PM,78.1,59.0,52,30.28,10.0,ESE,5.8,-,N/A,,Scattered Clouds,110,2013-08-17 17:56:00
2:56 PM,78.1,59.0,52,30.27,10.0,SSE,6.9,-,N/A,,Mostly Cloudy,160,2013-08-17 18:56:00
3:56 PM,77.0,57.9,52,30.26,10.0,SE,8.1,-,N/A,,Overcast,130,2013-08-17 19:56:00
4:56 PM,75.9,55.9,50,30.26,10.0,ESE,6.9,-,N/A,,Clear,120,2013-08-17 20:56:00
5:56 PM,75.0,55.9,51,30.27,10.0,East,8.1,-,N/A,,Scattered Clouds,100,2013-08-17 21:56:00
6:56 PM,72.0,55.0,55,30.27,10.0,ESE,4.6,-,N/A,,Clear,120,2013-08-17 22:56:00
7:56 PM,69.1,55.0,61,30.28,10.0,SE,4.6,-,N/A,,Clear,140,2013-08-17 23:56:00
8:56 PM,66.0,55.0,68,30.28,10.0,Calm,Calm,-,N/A,,Clear,0,2013-08-18 00:56:00
9:56 PM,63.0,57.0,81,30.30,10.0,Calm,Calm,-,N/A,,Scattered Clouds,0,2013-08-18 01:56:00
10:56 PM,61.0,57.0,87,30.30,10.0,Calm,Calm,-,N/A,,Clear,0,2013-08-18 02:56:00
11:56 PM,60.1,57.0,90,30.30,10.0,Calm,Calm,-,N/A,,Partly Cloudy,0,2013-08-18 03:56:00